This is the latest recevied weather packets stored in our database for station/object N6GPM. If no packets are shown the sender has not sent any weather packets the latest 10 day(s).
| Time | Temp. | Humidity | Pressure | Rain* | Wind** | Luminosity | Snow |
|---|---|---|---|---|---|---|---|
| 1777248657 | 15° C | 54% | 1017.6 hPa | 0 mm | - | 208 W/m² | - |
| 1777248354 | 15° C | 54% | 1017.4 hPa | 0 mm | - | 121 W/m² | - |
| 1777248050 | 15° C | 55% | 1017.3 hPa | 0 mm | - | 112 W/m² | - |
| 1777247749 | 15° C | 54% | 1017.3 hPa | 0 mm | - | 100 W/m² | - |
| 1777247446 | 15.56° C | 54% | 1017.3 hPa | 0 mm | - | 324 W/m² | - |
| 1777247144 | 15.56° C | 54% | 1017 hPa | 0 mm | - | 468 W/m² | - |
| 1777246841 | 16.11° C | 53% | 1017.3 hPa | 0 mm | - | 449 W/m² | - |
| 1777246537 | 16.11° C | 53% | 1017.3 hPa | 0 mm | - | 475 W/m² | - |
| 1777246234 | 15° C | 56% | 1017 hPa | 0 mm | - | 502 W/m² | - |
| 1777245931 | 15° C | 56% | 1017.2 hPa | 0 mm | - | 526 W/m² | - |
| 1777245630 | 15.56° C | 55% | 1017 hPa | 0 mm | - | 159 W/m² | - |
| 1777245326 | 15.56° C | 56% | 1017 hPa | 0 mm | - | 219 W/m² | - |
| 1777245021 | 15.56° C | 56% | 1016.9 hPa | 0 mm | - | 334 W/m² | - |
| 1777244717 | 15.56° C | 56% | 1017 hPa | 0 mm | - | 171 W/m² | - |
| 1777244414 | 15.56° C | 56% | 1017 hPa | 0 mm | - | 308 W/m² | - |
| 1777244110 | 16.11° C | 54% | 1017.4 hPa | 0 mm | - | 553 W/m² | - |
| 1777243809 | 16.11° C | 53% | 1017.2 hPa | 0 mm | - | 555 W/m² | - |
| 1777243506 | 16.11° C | 54% | 1017.2 hPa | 0 mm | - | 318 W/m² | - |
| 1777243200 | 16.11° C | 53% | 1017 hPa | 0 mm | - | 405 W/m² | - |
| 1777242891 | 15.56° C | 54% | 1017.2 hPa | 0 mm | - | 486 W/m² | - |
| 1777242589 | 15.56° C | 53% | 1017.2 hPa | 0 mm | - | 206 W/m² | - |
| 1777242284 | 16.11° C | 52% | 1017.3 hPa | 0 mm | - | 136 W/m² | - |
| 1777241982 | 16.11° C | 51% | 1017.3 hPa | 0 mm | - | 653 W/m² | - |
| 1777241679 | 16.67° C | 50% | 1017.2 hPa | 0 mm | - | 178 W/m² | - |
| 1777241376 | 15.56° C | 50% | 1017.2 hPa | 0 mm | - | 674 W/m² | - |
* Rain latest hour (hover to see other rain measurements)
** Current wind speed in m/s (hover to see current wind gust speed)